[[[{"header":{"parameterUnit":"kt","parameterCategory":2,"dx":1,"dy":1,"la1":30.253999710083008,"la2":30.299108505249023,"lo1":-89.0895004272461,"lo2":-89.04439544677734,"nx":28,"ny":28,"refTime":"2022-10-14T21:00:00:Z","depth":0,"parameterNumber":1,"parameterNumberName":"U-component_of_WINDS"},"data":[-1.8285,-1.8317,-1.8302,-1.8332,-1.8324,-1.8342,-1.8344,-1.8345,-1.8342,-1.8363,-1.8373,-1.8362,-1.8354,-1.8363,-1.8374,-1.8369,-1.8375,-1.8397,-1.8388,-1.8299,-1.8285,-1.8273,-1.8264,-1.8398,-1.8399,-1.8482,-1.8483,-1.8483,-1.8224,-1.8215,-1.8226,-1.8227,-1.8237,-1.8206,-1.8205,-1.8215,-1.8233,-1.8229,-1.8237,-1.8255,-1.8267,-1.8251,-1.8261,-1.8277,-1.8263,-1.828,-1.8279,-1.8279,-1.8183,-1.8174,-1.8291,-1.8291,-1.8291,-1.8291,-1.8291,-1.8291,-1.8108,-1.8127,-1.8118,-1.813,-1.8126,-1.8127,-1.8143,-1.8128,-1.8139,-1.8146,-1.8126,-1.8146,-1.814,-1.8143,-1.8141,-1.8157,-1.8135,-1.8149,-1.8153,-1.8158,-1.8165,-1.8049,-1.8158,-1.8157,-1.8157,-1.8157,-1.8156,0,-1.8018,-1.8004,-1.8013,-1.8018,-1.8025,-1.8028,-1.8027,-1.8037,-1.8002,-1.8013,-1.8027,-1.8033,-1.8045,-1.8058,-1.8063,-1.8057,-1.8027,-1.8022,-1.8032,-1.8042,-1.8052,-1.8048,-1.7894,-1.8019,-1.8018,-1.8017,-1.8016,-1.8016,-1.7901,-1.7925,-1.7908,-1.7916,-1.7911,-1.7926,-1.7931,-1.7898,-1.7906,-1.7901,-1.792,-1.7931,-1.7939,-1.7965,-1.7948,-1.7957,-1.7943,-1.7992,-1.7944,-1.7953,-1.7945,-1.7944,-1.7947,-1.8002,-1.8004,-1.8005,-1.8006,0,-1.7837,-1.7811,-1.7843,-1.7822,-1.7818,-1.7846,-1.7829,-1.7847,-1.783,-1.7853,-1.7856,-1.783,-1.7845,-1.7819,-1.783,-1.7817,-1.7864,-1.7849,-1.7866,-1.7862,-1.7905,-1.7901,-1.8044,-1.8062,-1.7921,-1.7923,-1.7924,0,-1.7727,-1.776,-1.7719,-1.7739,-1.7774,-1.7739,-1.7775,-1.7764,-1.7756,-1.7774,-1.7734,-1.7752,-1.7715,-1.773,-1.7709,-1.7743,-1.7745,-1.7736,-1.7731,-1.774,-1.7742,-1.7744,-1.7738,-1.7715,-1.7715,-1.7714,-1.7713,0,-1.763,-1.7646,-1.7677,-1.7677,-1.7658,-1.7674,-1.7667,-1.7658,-1.7664,-1.7667,-1.767,-1.7677,-1.768,-1.7687,-1.766,-1.7628,-1.77,-1.7651,-1.7692,-1.7693,-1.7709,-1.7708,-1.7841,-1.7712,-1.7712,-1.7712,-1.7712,0,-1.7538,-1.754,-1.7589,-1.7573,-1.7578,-1.7599,-1.7602,-1.7614,-1.7607,-1.7595,-1.7597,-1.7567,-1.7593,-1.7547,-1.7582,-1.7549,-1.7555,-1.7549,-1.7552,-1.7552,-1.7501,-1.7581,-1.7709,-1.7722,-1.7554,-1.7553,-1.7551,0,-1.7435,-1.7477,-1.7446,-1.7494,-1.7509,-1.7463,-1.7486,-1.748,-1.7465,-1.7477,-1.7461,-1.7475,-1.7435,-1.7435,-1.7457,-1.7441,-1.7485,-1.7434,-1.7454,-1.7455,-1.7458,-1.7576,-1.7601,-1.7684,-1.7534,-1.7536,-1.7537,0,-1.7351,-1.7326,-1.7336,-1.7334,-1.732,-1.7332,-1.7358,-1.7363,-1.7373,-1.7371,-1.7393,-1.7411,-1.7381,-1.7383,-1.7358,-1.7382,-1.7454,-1.7347,-1.7346,-1.7368,-1.7523,-1.7547,-1.7561,-1.7433,-1.7435,-1.7437,-1.7523,0,-1.7219,-1.7235,-1.7262,-1.7257,-1.7262,-1.7289,-1.7259,-1.7268,-1.7244,-1.7227,-1.7258,-1.7246,-1.7252,-1.726,-1.7236,-1.7298,-1.7283,-1.7251,-1.7204,-1.7281,-1.7309,-1.732,-1.7165,-1.7163,-1.7162,-1.7161,0,0,-1.7127,-1.715,-1.7114,-1.7136,-1.7138,-1.7088,-1.7121,-1.7117,-1.7111,-1.7114,-1.7087,-1.7111,-1.7102,-1.7143,-1.7165,-1.7167,-1.7176,-1.7149,-1.7244,-1.7254,-1.7263,-1.7293,-1.7305,-1.7158,-1.7158,-1.7158,-1.7157,0,-1.7072,-1.7062,-1.7093,-1.7087,-1.7077,-1.7057,-1.7065,-1.7046,-1.7036,-1.7065,-1.7024,-1.7039,-1.7058,-1.7054,-1.7055,-1.7143,-1.7112,-1.7147,-1.7205,-1.7232,-1.7243,-1.7253,-1.7285,-1.7297,-1.7154,-1.7154,-1.7154,0,-1.6985,-1.697,-1.6981,-1.6982,-1.6974,-1.6991,-1.6934,-1.6953,-1.6966,-1.691,-1.6939,-1.6928,-1.6921,-1.6962,-1.698,-1.6956,-1.7056,-1.7018,-1.7026,-1.7027,-1.7051,-1.7065,-1.7077,-1.6919,-1.6918,-1.6917,0,0,-1.6941,-1.6955,-1.6929,-1.6967,-1.6966,-1.6935,-1.6941,-1.6916,-1.6909,-1.6907,-1.6891,-1.6887,-1.6898,-1.6906,-1.6914,-1.6964,-1.696,-1.699,-1.7001,-1.7011,-1.7017,-1.7044,-1.7057,-1.6915,-1.6915,-1.6915,0,0,-1.692,-1.689,-1.6866,-1.6907,-1.6901,-1.6878,-1.6903,-1.6873,-1.6877,-1.6871,-1.6831,-1.6828,-1.6866,-1.6857,-1.6825,-1.6897,-1.6851,-1.6857,-1.6901,-1.6915,-1.6926,-1.6927,-1.6765,0,0,0,0,0,-1.6847,-1.6894,-1.6872,-1.6874,-1.6874,-1.689,-1.6889,-1.6857,-1.6825,-1.6846,-1.6829,-1.6794,-1.6832,-1.6803,-1.6806,-1.6842,-1.6881,-1.6887,-1.6892,-1.6961,-1.6975,-1.6987,0,0,0,0,0,0,-1.6848,-1.685,-1.6871,-1.685,-1.6849,-1.6888,-1.6826,-1.6819,-1.6822,-1.6815,-1.6798,-1.6793,-1.6766,-1.6799,-1.6802,-1.6837,-1.6763,-1.6883,-1.6888,-1.6893,-1.6966,-1.6978,-1.6988,0,0,0,0,0,-1.6848,-1.685,-1.6858,-1.6849,-1.6848,-1.6817,-1.6824,-1.6817,-1.6819,-1.6792,-1.6786,-1.6795,-1.6768,-1.6769,-1.6801,-1.6836,-1.6761,-1.6762,-1.6886,-1.689,-1.6894,-1.6971,0,0,0,0,0,0,-1.6848,-1.6844,-1.6857,-1.6856,-1.6828,-1.6814,-1.681,-1.6816,-1.6795,-1.679,-1.6786,-1.6781,-1.677,-1.677,-1.6771,-1.6838,-1.6759,-1.676,-1.6761,-1.6889,-1.6893,-1.6895,0,0,0,0,0,0,-1.6843,-1.6844,-1.6857,-1.6832,-1.6828,-1.6811,-1.6808,-1.6831,-1.6796,-1.6791,-1.6786,-1.6784,-1.6769,-1.6772,-1.6772,-1.6808,-1.6757,-1.6758,-1.6759,-1.676,-1.6892,-1.6895,0,0,0,0,0,0,-1.6843,-1.6843,-1.6832,-1.6829,-1.6825,-1.6809,-1.6831,-1.6833,-1.6774,-1.6793,-1.6768,-1.6766,-1.6772,-1.6771,-1.6773,-1.6809,-1.6808,-1.6757,-1.6758,-1.6759,-1.6759,0,0,0,0,0,0,0,-1.6842,-1.6846,-1.6865,-1.6826,-1.6823,-1.6844,-1.6844,-1.6844,-1.6774,-1.6771,-1.6769,-1.6767,-1.6749,-1.6751,-1.6752,-1.681,0,0,-1.6757,-1.6758,0,0,0,0,0,0,0,0,-1.6845,-1.6846,-1.6865,-1.6864,-1.6864,-1.6844,-1.6844,-1.6844,-1.6773,-1.6771,-1.677,-1.6768,-1.675,-1.6751,-1.6752,0,0,0,0,0,0,0,0,0,0,0,0,0,0,0,-1.6864,-1.6864,0,-1.6844,-1.6844,-1.6844,-1.6773,-1.6772,-1.677,-1.6768,-1.675,-1.6751,-1.6752,0,0,0,0,0,0,0,0,0,0,0,0,0,0,0,0,0,0,0,0,0,0,0,0,0,0,0,0,0,0,0,0,0,0,0,0,0,0,0,0,0,0,0,0,0,0,0,0,0,0,0,0,0,0,0,0,0,0,0,0,0,0,0,0,0,0,0,0,0]}],[{"header":{"parameterUnit":"kt","parameterCategory":2,"dx":1,"dy":1,"la1":30.253999710083008,"la2":30.299108505249023,"lo1":-89.0895004272461,"lo2":-89.04439544677734,"nx":28,"ny":28,"refTime":"2022-10-14T21:00:00:Z","depth":0,"parameterNumber":2,"parameterNumberName":"V-component_of_WINDS"},"data":[4.8771,4.8793,4.8797,4.8823,4.8831,4.8849,4.8856,4.8866,4.8875,4.8896,4.8909,4.8914,4.8923,4.8938,4.8951,4.8953,4.8957,4.8962,4.8963,4.894,4.8937,4.8934,4.8929,4.8964,4.8964,4.8986,4.8986,4.8986,4.8753,4.8762,4.8777,4.8795,4.8807,4.8806,4.8819,4.8829,4.8845,4.8856,4.8869,4.8887,4.8902,4.8909,4.8923,4.8932,4.8931,4.8936,4.8934,4.8935,4.8911,4.8906,4.8936,4.8936,4.8936,4.8936,4.8936,4.8936,4.8721,4.8734,4.8748,4.8764,4.8774,4.8785,4.8798,4.8805,4.8819,4.8836,4.8837,4.8855,4.8865,4.8884,4.8891,4.8904,4.8899,4.8905,4.8906,4.8907,4.8907,4.8872,4.8907,4.8907,4.8907,4.8907,4.8907,0,4.8699,4.8702,4.8717,4.8733,4.8745,4.8758,4.877,4.8778,4.8784,4.8795,4.8812,4.8822,4.8841,4.8856,4.887,4.8876,4.8873,4.8874,4.8877,4.8876,4.8873,4.8873,4.8832,4.8872,4.8872,4.8872,4.8872,4.8871,4.8666,4.8681,4.8697,4.8707,4.8715,4.8731,4.8741,4.8745,4.8755,4.877,4.878,4.8796,4.8809,4.8834,4.884,4.8854,4.8852,4.8867,4.8854,4.8852,4.885,4.8849,4.8849,4.8868,4.8869,4.8869,4.8869,0,4.8646,4.8653,4.8678,4.8692,4.8696,4.8711,4.8722,4.8735,4.874,4.8758,4.8762,4.8769,4.8785,4.8789,4.8807,4.8809,4.8831,4.883,4.8827,4.8827,4.8839,4.8837,4.8882,4.8887,4.8853,4.8854,4.8854,0,4.862,4.864,4.8648,4.8662,4.8684,4.8688,4.8708,4.8715,4.8725,4.8739,4.8738,4.8751,4.8754,4.8767,4.8769,4.8789,4.8792,4.8794,4.8794,4.8793,4.8793,4.8797,4.8794,4.8795,4.8795,4.8795,4.8795,0,4.8588,4.8616,4.8639,4.8646,4.8662,4.8673,4.868,4.8691,4.8701,4.8714,4.872,4.8735,4.8742,4.8753,4.8756,4.8747,4.878,4.8768,4.8781,4.8781,4.8787,4.8786,4.8826,4.8794,4.8794,4.8794,4.8794,0,4.8567,4.8581,4.8614,4.8627,4.8634,4.8649,4.8664,4.8678,4.869,4.8693,4.8703,4.8702,4.872,4.8708,4.8733,4.872,4.8727,4.8731,4.8732,4.8732,4.8718,4.8738,4.8777,4.8781,4.8734,4.8734,4.8734,0,4.8527,4.8562,4.8566,4.8596,4.8613,4.861,4.8627,4.8637,4.8642,4.8656,4.8661,4.8677,4.8669,4.8674,4.8686,4.8691,4.8707,4.8689,4.8706,4.8706,4.8701,4.8738,4.8742,4.8769,4.8727,4.8728,4.8728,0,4.8497,4.8518,4.8523,4.8531,4.8547,4.8561,4.858,4.8597,4.8606,4.8619,4.8634,4.8656,4.8651,4.8659,4.866,4.8672,4.8696,4.8664,4.8664,4.8668,4.8725,4.8729,4.8733,4.8694,4.8694,4.8695,4.8723,0,4.8461,4.848,4.8495,4.8513,4.8525,4.8545,4.855,4.8561,4.8561,4.8565,4.8589,4.8598,4.8614,4.8621,4.862,4.8648,4.8643,4.8637,4.8623,4.8648,4.8658,4.8662,4.8609,4.8609,4.8609,4.8608,0,0,4.842,4.8447,4.845,4.847,4.848,4.8476,4.8497,4.8506,4.8524,4.853,4.8523,4.8556,4.8564,4.8591,4.8599,4.8606,4.8611,4.8602,4.8637,4.864,4.8643,4.8653,4.8657,4.8608,4.8608,4.8608,4.8608,0,4.8408,4.8418,4.844,4.8449,4.8464,4.8468,4.8473,4.8487,4.849,4.8514,4.8509,4.8523,4.855,4.8558,4.8566,4.86,4.8594,4.8604,4.862,4.8634,4.8637,4.8641,4.8651,4.8655,4.8607,4.8607,4.8607,0,4.8378,4.8388,4.8399,4.8423,4.8432,4.8449,4.8437,4.8456,4.8469,4.8462,4.8485,4.8491,4.8503,4.8529,4.854,4.8534,4.8579,4.8566,4.8568,4.8569,4.8582,4.8586,4.859,4.8539,4.8539,4.8539,0,0,4.8366,4.8384,4.8396,4.8421,4.8427,4.8433,4.8443,4.8443,4.8455,4.846,4.8467,4.8478,4.8493,4.8503,4.8517,4.8545,4.8547,4.8557,4.8561,4.8563,4.8565,4.8579,4.8584,4.8538,4.8538,4.8538,0,0,4.836,4.8375,4.8373,4.8403,4.8415,4.8427,4.8441,4.8439,4.8452,4.845,4.8451,4.8454,4.8478,4.8484,4.8471,4.8512,4.85,4.8503,4.8508,4.8512,4.8515,4.8512,4.8458,0,0,0,0,0,4.835,4.8374,4.8372,4.8377,4.8406,4.8429,4.8432,4.8434,4.8425,4.8436,4.8441,4.8436,4.8477,4.8465,4.847,4.8484,4.8525,4.8528,4.853,4.8543,4.8547,4.855,0,0,0,0,0,0,4.8352,4.8359,4.8371,4.8385,4.8391,4.8428,4.8412,4.8414,4.8424,4.8422,4.8435,4.8436,4.8437,4.8463,4.8467,4.8481,4.8457,4.8526,4.8528,4.853,4.8544,4.8547,4.855,0,0,0,0,0,4.8354,4.8359,4.8406,4.8384,4.839,4.8398,4.8412,4.8412,4.842,4.8429,4.843,4.8421,4.8438,4.8442,4.8465,4.8478,4.8454,4.8455,4.8527,4.8529,4.853,4.8546,0,0,0,0,0,0,4.8355,4.836,4.8407,4.8409,4.8376,4.8396,4.8399,4.8411,4.8426,4.8427,4.8414,4.8413,4.8438,4.8441,4.8444,4.8478,4.8451,4.8453,4.8454,4.8529,4.853,4.8531,0,0,0,0,0,0,4.8357,4.8361,4.8408,4.8397,4.8397,4.8394,4.8397,4.8418,4.8426,4.841,4.841,4.8413,4.8433,4.8441,4.8443,4.8475,4.8449,4.8451,4.8452,4.8453,4.853,4.853,0,0,0,0,0,0,4.8359,4.8363,4.8397,4.8397,4.8397,4.8417,4.8412,4.8441,4.8418,4.841,4.8415,4.8414,4.8433,4.8436,4.8443,4.8474,4.8475,4.8449,4.845,4.8451,4.8452,0,0,0,0,0,0,0,4.836,4.8334,4.8397,4.8397,4.8397,4.8425,4.8426,4.8426,4.8417,4.8417,4.8416,4.8415,4.844,4.8442,4.8444,4.8472,0,0,4.8449,4.845,0,0,0,0,0,0,0,0,4.8332,4.8334,4.8397,4.8397,4.8398,4.8425,4.8426,4.8426,4.8417,4.8417,4.8416,4.8415,4.844,4.8442,4.8443,0,0,0,0,0,0,0,0,0,0,0,0,0,0,0,4.8397,4.8397,0,4.8425,4.8426,4.8426,4.8417,4.8417,4.8416,4.8415,4.8441,4.8442,4.8443,0,0,0,0,0,0,0,0,0,0,0,0,0,0,0,0,0,0,0,0,0,0,0,0,0,0,0,0,0,0,0,0,0,0,0,0,0,0,0,0,0,0,0,0,0,0,0,0,0,0,0,0,0,0,0,0,0,0,0,0,0,0,0,0,0,0,0,0,0]}]]]